Location: Csohesd
(46.2500°N, 22.6167°E)
Time: 06:06:25
(UTC+00:00)

Cosmos 2278 - Pass Details

Date: 21 October 2021
Orbit: 838 x 854 km, 71.1° (Epoch: 04 December)

Event Time Altitude Azimuth Distance (km) Brightness Sun altitude
Rises 16:36:42 0° 209° (SSW) 3,387 7.3 -11.8°
Reaches altitude 10° 16:39:08 10° 210° (SSW) 2,458 6.6 -12.2°
Maximum altitude 16:44:47 78° 297° (WNW) 872 3.9 -13.2°
Drops below altitude 10° 16:50:31 10° 24° (NNE) 2,485 5.9 -14.2°
Sets 16:52:59 0° 26° (NNE) 3,427 6.6 -14.6°
